Location: Newark
(45.5000°N, 11.4167°E)
Time: 10:03:52
(UTC+00:00)

A-11 Canister half - All Passes

Search period start: 24 August 2019 00:00
Search period end: 03 September 2019 00:00
Orbit: 1526 x 1683 km, 47.3° (Epoch: 23 August)

Date Brightness Start Highest point End Pass type
(mag) Time Alt. Az. Time Alt. Az. Time Alt. Az.
24 Aug - 07:59:10 10° SSE 08:03:52 14° ESE 08:08:35 10° E daylight
24 Aug - 09:57:41 10° SSW 10:07:00 49° SE 10:16:32 10° ENE daylight
24 Aug - 12:01:38 10° WSW 12:11:43 90° SSE 12:21:57 10° ENE daylight
24 Aug - 14:07:07 10° W 14:17:19 83° N 14:27:32 10° E daylight
24 Aug - 16:12:29 10° WNW 16:22:28 63° SSW 16:32:20 10° SE daylight
24 Aug - 18:18:45 10° W 18:26:10 24° SW 18:33:30 10° S daylight
25 Aug - 07:38:15 10° SSE 07:42:20 13° ESE 07:46:27 10° E daylight
25 Aug - 09:36:11 10° SSW 09:45:24 47° SE 09:54:51 10° ENE daylight
25 Aug - 11:40:00 10° WSW 11:50:02 89° SSE 12:00:17 10° ENE daylight
25 Aug - 13:45:27 10° W 13:55:38 83° N 14:05:52 10° E daylight
25 Aug - 15:50:49 10° WNW 16:00:50 65° SSW 16:10:45 10° SE daylight
25 Aug - 17:56:57 10° W 18:04:36 25° SW 18:12:10 10° S daylight
26 Aug - 07:17:28 10° SE 07:20:49 12° ESE 07:24:11 10° E daylight
26 Aug - 09:14:41 10° SSW 09:23:48 45° SE 09:33:09 10° ENE daylight
26 Aug - 11:18:21 10° WSW 11:28:22 87° SSE 11:38:36 10° ENE daylight
26 Aug - 13:23:47 10° W 13:33:57 82° N 13:44:11 10° E daylight
26 Aug - 15:29:09 10° WNW 15:39:11 67° SSW 15:49:09 10° SE daylight
26 Aug - 17:35:10 10° WNW 17:43:03 27° SW 17:50:50 10° S daylight
27 Aug - 06:56:57 10° SE 06:59:18 11° ESE 07:01:39 10° ESE daylight
27 Aug - 08:53:12 10° SSW 09:02:12 43° SE 09:11:27 10° ENE daylight
27 Aug - 10:56:43 10° WSW 11:06:42 86° SSE 11:16:55 10° ENE daylight
27 Aug - 13:02:07 10° W 13:12:16 82° N 13:22:30 10° E daylight
27 Aug - 15:07:29 10° WNW 15:17:33 69° SSW 15:27:33 10° SE daylight
27 Aug - 17:13:23 10° WNW 17:21:29 28° SW 17:29:29 10° S daylight
28 Aug - 08:31:44 10° SSW 08:40:37 41° SE 08:49:44 10° ENE daylight
28 Aug - 10:35:06 10° WSW 10:45:02 84° SSE 10:55:15 10° ENE daylight
28 Aug - 12:40:27 10° W 12:50:35 81° N 13:00:49 10° E daylight
28 Aug - 14:45:49 10° WNW 14:55:54 71° SSW 15:05:57 10° SE daylight
28 Aug - 16:51:38 10° WNW 16:59:54 30° SW 17:08:05 10° S daylight
29 Aug - 08:10:16 10° SSW 08:19:02 39° SE 08:28:01 10° ENE daylight
29 Aug - 10:13:28 10° WSW 10:23:23 83° SSE 10:33:34 10° ENE daylight
29 Aug - 12:18:47 10° W 12:28:53 81° N 12:39:08 10° E daylight
29 Aug - 14:24:09 10° WNW 14:34:15 73° SSW 14:44:20 10° SE daylight
29 Aug - 16:29:53 10° WNW 16:38:19 31° SW 16:46:42 10° S daylight
30 Aug - 07:48:49 10° SSW 07:57:27 37° SE 08:06:19 10° ENE daylight
30 Aug - 09:51:51 10° WSW 10:01:44 81° SSE 10:11:53 10° ENE daylight
30 Aug - 11:57:07 10° W 12:07:12 81° N 12:17:27 10° E daylight
30 Aug - 14:02:30 10° WNW 14:12:36 75° SSW 14:22:42 10° ESE daylight
30 Aug - 16:08:10 10° WNW 16:16:44 33° SW 16:25:17 10° SSE daylight
31 Aug - 07:27:24 10° SSW 07:35:52 36° SE 07:44:35 10° ENE daylight
31 Aug - 09:30:15 10° WSW 09:40:05 79° SSE 09:50:13 10° ENE daylight
31 Aug - 11:35:28 10° W 11:45:31 81° N 11:55:45 10° E daylight
31 Aug - 13:40:51 10° WNW 13:50:57 77° SSW 14:01:05 10° ESE daylight
31 Aug - 15:46:26 10° WNW 15:55:09 34° SW 16:03:51 10° SSE daylight
01 Sep - 07:05:58 10° SSW 07:14:18 34° SE 07:22:51 10° ENE daylight
01 Sep - 09:08:39 10° WSW 09:18:26 77° SSE 09:28:31 10° ENE daylight
01 Sep - 11:13:48 10° W 11:23:50 81° N 11:34:04 10° E daylight
01 Sep - 13:19:11 10° WNW 13:29:17 79° SSW 13:39:27 10° ESE daylight
01 Sep - 15:24:43 10° WNW 15:33:34 36° SW 15:42:24 10° SSE daylight
02 Sep - 06:44:34 10° SSW 06:52:44 32° SE 07:01:07 10° ENE daylight
02 Sep - 08:47:02 10° WSW 08:56:47 75° SSE 09:06:51 10° ENE daylight
02 Sep - 10:52:08 10° W 11:02:09 81° N 11:12:22 10° E daylight
02 Sep - 12:57:32 10° WNW 13:07:38 80° SSW 13:17:48 10° ESE daylight
02 Sep - 15:03:00 10° WNW 15:11:58 38° SW 15:20:56 10° SSE daylight
